Precipitable_Water
0.42 0.36 0.33 0.32 0.31 0.29 0.27 0.25 0.19 0.15 0.18 0.26 0.26 0.33 0.33 0.34 0.36 0.36 0.39 0.40 0.46 0.50 0.54 0.56 0.59 0.60 0.62 0.64 0.66 0.67 0.69 0.77 0.78 0.88 0.90 0.89 0.94 0.97
0.36 0.31 0.31 0.30 0.28 0.28 0.27 0.26 0.24 0.21 0.18 0.25 0.27 0.29 0.30 0.30 0.32 0.31 0.32 0.31 0.34 0.44 0.50 0.53 0.55 0.57 0.59 0.61 0.64 0.64 0.67 0.73 0.73 0.79 0.85 0.82 0.85 0.95
0.31 0.28 0.27 0.27 0.26 0.25 0.25 0.25 0.24 0.25 0.19 0.24 0.27 0.28 0.25 0.24 0.27 0.26 0.25 0.22 0.23 0.25 0.32 0.41 0.50 0.53 0.55 0.57 0.60 0.64 0.63 0.67 0.70 0.73 0.79 0.82 0.84 0.84
0.27 0.27 0.25 0.25 0.24 0.24 0.24 0.24 0.24 0.25 0.23 0.19 0.22 0.22 0.21 0.20 0.22 0.23 0.22 0.22 0.22 0.25 0.25 0.28 0.32 0.39 0.48 0.53 0.55 0.59 0.62 0.62 0.66 0.69 0.72 0.72 0.82 0.76
0.26 0.24 0.23 0.23 0.21 0.22 0.22 0.22 0.24 0.23 0.22 0.19 0.18 0.20 0.20 0.19 0.17 0.20 0.21 0.21 0.21 0.23 0.23 0.25 0.27 0.30 0.33 0.42 0.47 0.50 0.56 0.61 0.63 0.65 0.68 0.72 0.71 0.70
0.25 0.23 0.22 0.21 0.21 0.21 0.21 0.21 0.21 0.19 0.18 0.16 0.16 0.17 0.16 0.18 0.19 0.17 0.18 0.22 0.21 0.22 0.23 0.24 0.24 0.26 0.30 0.32 0.34 0.40 0.42 0.52 0.59 0.60 0.62 0.65 0.70 0.71
0.24 0.21 0.21 0.21 0.20 0.20 0.19 0.18 0.18 0.16 0.14 0.14 0.14 0.13 0.14 0.15 0.15 0.16 0.16 0.19 0.22 0.22 0.21 0.22 0.23 0.23 0.25 0.29 0.30 0.30 0.32 0.36 0.41 0.54 0.56 0.58 0.60 0.63
0.23 0.23 0.24 0.22 0.20 0.19 0.17 0.17 0.16 0.13 0.12 0.12 0.12 0.12 0.13 0.14 0.16 0.16 0.16 0.15 0.14 0.22 0.19 0.19 0.22 0.22 0.23 0.27 0.30 0.27 0.27 0.26 0.28 0.34 0.37 0.50 0.53 0.52
0.24 0.23 0.21 0.21 0.20 0.19 0.19 0.17 0.16 0.15 0.15 0.13 0.12 0.13 0.13 0.14 0.17 0.17 0.17 0.16 0.15 0.18 0.19 0.16 0.18 0.18 0.22 0.24 0.27 0.28 0.26 0.26 0.24 0.23 0.25 0.31 0.34 0.41
0.24 0.23 0.21 0.20 0.21 0.20 0.18 0.17 0.17 0.16 0.16 0.16 0.16 0.16 0.16 0.16 0.18 0.19 0.19 0.17 0.18 0.18 0.19 0.14 0.18 0.15 0.17 0.19 0.23 0.25 0.26 0.25 0.25 0.23 0.21 0.20 0.22 0.27
0.24 0.23 0.21 0.20 0.21 0.20 0.17 0.16 0.16 0.17 0.19 0.19 0.18 0.17 0.18 0.18 0.17 0.17 0.16 0.16 0.16 0.16 0.19 0.18 0.18 0.17 0.16 0.16 0.18 0.20 0.22 0.23 0.23 0.23 0.22 0.20 0.19 0.18
0.24 0.22 0.21 0.21 0.22 0.20 0.17 0.16 0.15 0.15 0.15 0.15 0.16 0.16 0.17 0.17 0.18 0.17 0.17 0.15 0.15 0.15 0.19 0.17 0.17 0.17 0.15 0.17 0.16 0.17 0.18 0.18 0.18 0.19 0.20 0.21 0.19 0.18
0.22 0.21 0.20 0.22 0.23 0.21 0.18 0.17 0.16 0.16 0.15 0.15 0.15 0.16 0.17 0.16 0.17 0.18 0.19 0.18 0.16 0.16 0.19 0.19 0.16 0.16 0.15 0.15 0.15 0.15 0.16 0.16 0.16 0.15 0.15 0.16 0.18 0.18
0.22 0.21 0.22 0.24 0.23 0.22 0.19 0.19 0.19 0.17 0.15 0.14 0.14 0.14 0.15 0.16 0.17 0.18 0.18 0.19 0.19 0.19 0.19 0.19 0.17 0.16 0.15 0.14 0.12 0.14 0.14 0.14 0.14 0.14 0.14 0.15 0.15 0.15
0.23 0.22 0.22 0.23 0.24 0.23 0.20 0.20 0.20 0.18 0.16 0.14 0.14 0.14 0.15 0.17 0.18 0.18 0.19 0.19 0.20 0.20 0.20 0.19 0.17 0.16 0.15 0.13 0.12 0.12 0.13 0.12 0.13 0.12 0.13 0.13 0.14 0.14
0.28 0.25 0.24 0.24 0.24 0.22 0.20 0.19 0.19 0.19 0.17 0.15 0.15 0.15 0.16 0.16 0.17 0.19 0.18 0.17 0.18 0.18 0.20 0.20 0.18 0.17 0.15 0.14 0.13 0.12 0.12 0.11 0.13 0.13 0.13 0.13 0.13 0.13
0.28 0.27 0.25 0.23 0.21 0.19 0.18 0.17 0.17 0.17 0.16 0.16 0.16 0.15 0.16 0.17 0.17 0.19 0.19 0.19 0.17 0.17 0.18 0.18 0.19 0.18 0.16 0.15 0.13 0.13 0.12 0.12 0.13 0.13 0.12 0.12 0.12 0.13
0.29 0.26 0.23 0.22 0.19 0.17 0.15 0.15 0.16 0.16 0.16 0.16 0.16 0.16 0.16 0.17 0.17 0.18 0.18 0.18 0.17 0.17 0.16 0.16 0.16 0.16 0.16 0.16 0.16 0.13 0.13 0.12 0.12 0.12 0.12 0.11 0.11 0.12
0.28 0.26 0.25 0.22 0.18 0.16 0.16 0.16 0.16 0.17 0.18 0.17 0.16 0.16 0.18 0.18 0.18 0.18 0.18 0.18 0.17 0.17 0.17 0.16 0.15 0.13 0.11 0.10 0.12 0.17 0.13 0.13 0.12 0.12 0.11 0.11 0.10 0.11
0.30 0.26 0.23 0.21 0.18 0.17 0.18 0.18 0.18 0.19 0.19 0.18 0.17 0.17 0.18 0.18 0.19 0.18 0.18 0.17 0.17 0.17 0.16 0.16 0.15 0.14 0.12 0.11 0.11 0.13 0.16 0.14 0.13 0.12 0.11 0.11 0.11 0.11
0.26 0.24 0.23 0.20 0.19 0.20 0.21 0.21 0.21 0.21 0.20 0.20 0.19 0.18 0.18 0.18 0.18 0.18 0.18 0.18 0.17 0.17 0.15 0.14 0.15 0.15 0.15 0.14 0.11 0.11 0.13 0.14 0.14 0.12 0.12 0.10 0.09 0.09
0.26 0.23 0.23 0.23 0.22 0.24 0.24 0.23 0.23 0.23 0.21 0.20 0.19 0.19 0.19 0.18 0.18 0.18 0.18 0.17 0.16 0.16 0.15 0.15 0.15 0.14 0.13 0.12 0.11 0.11 0.11 0.12 0.12 0.12 0.11 0.11 0.10 0.09
0.29 0.29 0.30 0.30 0.28 0.27 0.26 0.25 0.24 0.23 0.22 0.22 0.21 0.19 0.18 0.18 0.18 0.18 0.18 0.17 0.16 0.15 0.14 0.14 0.13 0.13 0.12 0.12 0.11 0.11 0.11 0.10 0.10 0.09 0.09 0.10 0.11 0.11
Wind_Speed
17 16 16 16 16 15 15 16 18 18 20 21 23 25 27 28 29 29 28 27 26 25 23 22 23 24 24 24 24 23 20 20 16 14 10 14 28 36
18 16 16 15 14 14 15 16 16 17 19 20 21 24 25 27 26 25 24 24 24 24 22 21 22 22 24 24 24 22 18 17 16 12 8 4 12 22
17 16 16 15 15 14 15 16 16 17 18 19 21 22 24 24 23 22 22 22 22 23 22 21 21 21 22 22 21 21 17 15 16 10 6 4 4 13
17 16 15 15 14 14 15 15 16 17 18 19 20 21 22 22 21 21 21 20 20 20 21 21 21 21 20 20 20 20 18 14 14 14 6 5 3 9
17 16 15 14 14 14 14 15 16 16 17 18 19 20 20 20 21 21 19 19 18 19 19 20 20 20 20 19 18 18 17 14 13 11 12 8 2 3
16 15 14 14 14 14 14 14 15 16 16 17 17 18 19 19 20 20 19 18 18 18 18 18 18 19 19 19 18 16 17 15 11 11 10 8 8 3
15 14 14 14 13 13 13 13 14 15 15 15 16 17 18 18 18 20 19 18 17 17 17 17 17 17 17 18 18 16 15 14 11 10 10 7 5 6
16 15 14 13 12 12 12 12 14 14 14 14 15 16 17 17 18 18 19 18 16 17 16 16 16 15 15 16 17 16 15 14 13 11 9 7 6 7
17 16 14 13 12 12 12 12 13 13 13 14 14 16 17 17 17 17 17 17 16 16 15 15 15 15 15 14 14 15 14 13 12 10 9 8 8 8
18 16 15 14 14 13 13 13 13 14 14 14 14 16 17 18 17 17 17 17 16 16 15 14 15 15 14 14 14 13 13 12 12 11 10 10 9 8
18 17 16 15 14 14 14 14 14 15 15 15 15 16 17 17 18 17 17 17 16 16 16 15 15 14 14 14 14 14 13 13 12 12 11 11 11 10
18 18 17 16 16 15 15 15 15 15 16 16 16 16 17 17 18 18 18 17 17 17 17 16 17 16 14 14 14 14 13 13 13 13 13 12 12 11
18 18 17 17 17 16 16 16 16 16 16 17 17 18 18 18 18 18 18 18 18 18 18 18 17 17 16 16 15 15 15 14 14 14 14 14 14 13
19 18 18 18 18 18 18 18 18 18 18 18 19 20 20 20 20 20 20 19 19 19 20 19 18 18 17 17 17 17 17 17 17 17 17 16 15 14
19 19 19 19 19 19 19 20 19 20 20 21 21 22 23 23 23 22 21 21 21 21 21 20 20 19 18 18 18 19 18 18 19 19 18 18 18 18
20 19 19 19 20 20 20 21 21 22 22 23 23 24 25 24 24 24 23 23 22 22 22 21 21 21 20 19 19 20 20 20 21 21 21 21 21 21
21 21 21 21 21 21 22 22 22 23 24 24 25 25 26 26 25 24 24 24 24 23 23 23 22 22 21 21 21 22 22 23 23 23 23 23 23 23
22 22 22 22 23 23 23 23 24 25 26 26 26 26 25 24 24 24 24 24 24 24 23 23 23 23 23 23 23 24 24 25 25 25 25 25 25 26
23 23 24 24 24 25 25 25 25 26 27 26 26 26 25 24 24 24 24 24 24 24 23 23 23 23 24 24 25 24 25 25 26 26 26 26 27 27
24 24 24 25 25 26 26 27 27 27 27 26 26 26 25 25 25 25 24 24 24 24 24 24 24 25 25 26 26 26 26 26 26 27 27 28 28 28
23 24 25 26 27 27 28 28 28 28 27 27 26 26 26 26 25 25 25 24 24 24 25 25 26 27 27 27 27 27 27 27 27 28 28 28 28 27
24 25 25 26 27 28 28 28 28 27 27 26 26 26 26 25 25 25 25 25 26 26 27 27 27 28 27 27 28 28 28 28 28 29 28 27 27 26
25 26 27 28 28 28 28 28 28 28 27 27 26 26 25 25 25 26 26 27 27 27 27 28 28 28 28 27 28 28 28 27 27 27 27 27 28 28
Wind_Direction
273 273 273 277 280 282 287 294 299 303 307 311 314 320 323 325 327 329 331 334 335 335 332 333 335 339 341 341 340 336 333 341 336 331 307 247 228 226
267 268 271 273 276 282 289 294 300 304 307 311 315 320 323 324 326 328 331 335 338 340 338 335 335 338 342 344 345 345 344 346 349 348 346 289 216 214
262 265 268 270 272 281 289 295 300 304 308 312 316 320 323 325 326 328 331 333 337 344 346 343 341 341 344 348 351 354 352 353 359 350 3 18 173 198
258 261 264 266 273 281 289 295 299 304 308 311 316 319 323 326 324 326 328 331 336 341 346 348 350 350 348 350 356 359 0 4 8 14 12 26 122 198
256 258 260 263 272 281 288 294 297 304 308 311 315 319 321 324 327 324 323 326 332 336 340 346 349 353 356 355 357 2 4 5 10 16 30 33 50 187
250 253 256 263 271 278 286 293 298 303 307 311 315 318 321 322 326 328 322 318 325 330 334 339 346 351 355 358 358 0 4 6 7 16 18 28 65 67
246 249 255 262 269 277 284 292 299 303 307 309 313 317 321 321 327 330 328 318 318 326 328 334 336 343 350 356 358 359 1 4 3 1 9 19 32 34
243 246 254 259 266 276 286 294 300 302 304 307 310 315 317 319 322 329 335 333 321 322 324 330 335 336 341 348 355 358 0 2 4 1 0 356 353 354
240 244 249 256 264 274 285 294 301 304 305 305 309 312 314 317 318 322 329 333 329 328 323 324 330 333 337 339 343 350 354 357 359 3 5 357 351 348
240 243 248 254 262 272 280 290 296 299 301 302 305 311 313 314 313 317 319 323 327 329 326 323 327 330 331 333 336 338 343 347 351 349 348 348 343 342
239 244 250 254 261 268 278 285 290 293 296 297 301 307 312 315 315 313 316 315 317 320 326 324 325 323 329 334 333 330 329 332 335 337 335 333 328 327
242 245 247 254 260 268 275 279 283 288 291 293 296 301 305 309 313 314 313 313 313 312 316 315 316 317 314 323 331 331 330 329 326 324 323 321 320 314
243 246 251 252 260 267 271 276 281 285 288 290 292 294 299 302 306 308 310 310 309 310 312 311 311 309 307 306 312 319 321 321 322 322 321 318 311 307
245 249 251 253 261 265 270 274 277 283 286 288 290 291 293 295 297 300 302 303 305 306 308 308 306 307 305 304 304 305 310 312 311 310 311 311 309 308
248 250 252 256 261 266 269 271 275 280 283 286 288 289 289 290 291 293 296 298 300 302 304 304 304 304 304 302 302 304 300 306 308 306 305 304 301 300
249 251 256 259 263 267 269 273 276 278 282 284 287 287 288 288 289 289 290 293 296 297 298 299 300 300 300 300 300 301 303 301 303 302 301 299 298 297
249 253 256 259 263 267 271 274 275 278 283 284 285 287 287 287 288 288 288 289 292 293 294 295 296 297 297 296 297 298 299 300 300 299 298 296 296 295
251 254 257 260 264 267 270 273 276 280 283 284 284 285 287 287 287 288 288 288 289 290 291 293 293 293 294 293 294 295 297 297 298 298 297 295 294 295
253 256 259 262 266 267 270 274 277 280 283 283 281 282 284 285 285 286 288 288 287 288 289 290 292 293 294 293 293 294 294 295 296 296 295 294 293 294
256 258 262 264 267 268 271 274 278 280 281 281 280 281 282 282 283 284 286 287 286 286 287 289 291 292 292 292 292 292 294 295 294 295 295 294 292 292
259 261 264 267 269 270 273 276 277 278 279 279 280 280 281 281 281 282 284 286 286 285 286 288 290 291 291 291 291 290 291 293 294 294 294 294 293 290
262 264 268 271 271 273 275 276 276 276 277 278 279 280 280 279 280 282 283 285 285 286 287 288 290 291 290 290 289 290 290 291 292 293 293 292 290 289
267 269 272 273 275 275 274 275 275 275 275 277 277 278 278 279 280 282 283 284 285 286 287 287 289 290 289 289 289 289 290 291 292 292 292 291 290 289